Location: Burbank
(38.7788°N, 114.0429°W)
Time: 19:53:42
(UTC+00:00)

Vanguard 2 Rocket - Pass Details

Date: 23 May 2026
Orbit: 553 x 3286 km, 32.9° (Epoch: 6 June)

Event Time Altitude Azimuth Distance (km) Brightness Sun altitude
Rises 17:35:01 0° 255° (WSW) 4,305 10.1 58.9°
Reaches altitude 10° 17:37:26 10° 253° (WSW) 3,609 9.9 59.3°
Maximum altitude 17:47:13 67° 173° (S) 2,283 10.5 61.0°
Drops below altitude 10° 18:04:07 10° 96° (E) 5,894 11.5 63.7°
Sets 18:09:17 0° 94° (E) 7,121 11.7 64.5°
